When you browse on this site, cookies collect data to enhance your experience and personalize the content and advertising you see.
Visit our Privacy Policy to learn more. By continuing to use the site, you agree to this use of cookies and data.
  • In United Kingdom
  • List of Countries
  • For 7 days
  • Water Temperature
  • Satellite Maps
  • Weather Map
  • Weather Widgets
  • user-avatar
    Login

    Hourly Weather Bangor

    Today, 22 April, Monday

    Time Temperature Precipitation Wind Pressure Humidity
    00:00 +10°C° 0 mm 2 mps 741 mmHg 83%
    01:00 +11°C° 0 mm 1 mps 741 mmHg 85%
    02:00 +10°C° 0 mm 1 mps 740 mmHg 86%
    03:00 +9°C° 0 mm 1 mps 739 mmHg 88%
    04:00 +9°C° 0 mm 1 mps 739 mmHg 86%
    05:00 +8°C° 0 mm 2 mps 738 mmHg 84%
    06:00 +8°C° 0 mm 2 mps 738 mmHg 77%
    07:00 +10°C° 0 mm 2 mps 738 mmHg 72%
    08:00 +12°C° 0 mm 3 mps 737 mmHg 67%
    09:00 +14°C° 0 mm 3 mps 737 mmHg 62%
    10:00 +15°C° 0.1 mm 4 mps 736 mmHg 63%
    11:00 +18°C° 0.1 mm 4 mps 736 mmHg 63%
    12:00 +19°C° 0 mm 4 mps 736 mmHg 64%
    13:00 +19°C° 0.2 mm 4 mps 735 mmHg 64%
    14:00 +19°C° 0.2 mm 4 mps 735 mmHg 63%
    15:00 +19°C° 0.2 mm 5 mps 734 mmHg 62%
    16:00 +18°C° 0.1 mm 4 mps 734 mmHg 68%
    17:00 +18°C° 0.1 mm 3 mps 734 mmHg 74%
    18:00 +17°C° 0.1 mm 3 mps 734 mmHg 79%
    19:00 +15°C° 0 mm 2 mps 734 mmHg 82%
    20:00 +14°C° 0 mm 2 mps 733 mmHg 85%
    21:00 +12°C° 0 mm 1 mps 733 mmHg 89%
    22:00 +12°C° 0 mm 1 mps 733 mmHg 88%
    23:00 +12°C° 0 mm 1 mps 733 mmHg 87%

    Tomorrow, 23 April, Tuesday

    Time Temperature Precipitation Wind Pressure Humidity
    00:00 +10°C° 0 mm 2 mps 733 mmHg 87%
    01:00 +10°C° 0 mm 2 mps 732 mmHg 87%
    02:00 +10°C° 0 mm 2 mps 732 mmHg 87%
    03:00 +10°C° 0 mm 2 mps 731 mmHg 87%
    04:00 +10°C° 0 mm 2 mps 731 mmHg 88%
    05:00 +10°C° 0 mm 3 mps 731 mmHg 90%
    06:00 +10°C° 0 mm 3 mps 731 mmHg 91%
    07:00 +11°C° 0 mm 3 mps 731 mmHg 86%
    08:00 +13°C° 0 mm 3 mps 731 mmHg 82%
    09:00 +16°C° 0 mm 3 mps 731 mmHg 78%
    10:00 +18°C° 0.2 mm 4 mps 730 mmHg 75%
    11:00 +19°C° 0.2 mm 4 mps 730 mmHg 73%
    12:00 +20°C° 0.2 mm 4 mps 730 mmHg 71%
    13:00 +20°C° 0.7 mm 5 mps 730 mmHg 72%
    14:00 +20°C° 0.7 mm 5 mps 730 mmHg 73%
    15:00 +20°C° 0.7 mm 5 mps 730 mmHg 74%
    16:00 +19°C° 0.2 mm 4 mps 729 mmHg 77%
    17:00 +19°C° 0.2 mm 3 mps 729 mmHg 81%
    18:00 +18°C° 0.2 mm 2 mps 729 mmHg 84%
    19:00 +16°C° 0 mm 3 mps 729 mmHg 87%
    20:00 +14°C° 0 mm 3 mps 729 mmHg 90%
    21:00 +12°C° 0 mm 3 mps 729 mmHg 94%
    22:00 +12°C° 0 mm 3 mps 728 mmHg 94%
    23:00 +11°C° 0 mm 3 mps 728 mmHg 94%

    Day after tomorrow, 24 April, Wednesday

    Time Temperature Precipitation Wind Pressure Humidity
    00:00 +10°C° 0 mm 3 mps 728 mmHg 94%
    01:00 +9°C° 0 mm 3 mps 727 mmHg 95%
    02:00 +9°C° 0 mm 3 mps 727 mmHg 95%
    03:00 +8°C° 0 mm 3 mps 726 mmHg 95%
    04:00 +9°C° 0.1 mm 3 mps 726 mmHg 95%
    05:00 +9°C° 0.1 mm 3 mps 726 mmHg 96%
    06:00 +9°C° 0.1 mm 3 mps 726 mmHg 96%
    07:00 +8°C° 0.6 mm 4 mps 726 mmHg 95%
    08:00 +8°C° 0.6 mm 5 mps 726 mmHg 94%
    09:00 +8°C° 0.6 mm 6 mps 727 mmHg 93%
    10:00 +9°C° 0.4 mm 7 mps 727 mmHg 90%
    11:00 +10°C° 0.4 mm 7 mps 727 mmHg 87%
    12:00 +10°C° 0.4 mm 7 mps 728 mmHg 84%
    13:00 +11°C° 0.1 mm 7 mps 728 mmHg 78%
    14:00 +11°C° 0.1 mm 8 mps 728 mmHg 73%
    15:00 +12°C° 0.1 mm 8 mps 729 mmHg 67%
    16:00 +11°C° 0.1 mm 7 mps 729 mmHg 71%
    17:00 +11°C° 0.1 mm 6 mps 729 mmHg 75%
    18:00 +10°C° 0.1 mm 5 mps 728 mmHg 78%
    19:00 +9°C° 0 mm 5 mps 728 mmHg 81%
    20:00 +8°C° 0 mm 5 mps 728 mmHg 83%
    21:00 +7°C° 0 mm 4 mps 728 mmHg 86%
    22:00 +7°C° 0 mm 5 mps 728 mmHg 87%
    23:00 +6°C° 0 mm 5 mps 728 mmHg 87%

    25 April, Thursday

    Time Temperature Precipitation Wind Pressure Humidity
    00:00 +5°C° 0 mm 6 mps 727 mmHg 88%
    01:00 +7°C° 1.2 mm 6 mps 727 mmHg 90%
    02:00 +7°C° 1.2 mm 6 mps 727 mmHg 92%
    03:00 +7°C° 1.2 mm 6 mps 727 mmHg 94%
    04:00 +7°C° 0 mm 5 mps 727 mmHg 94%
    05:00 +6°C° 0 mm 4 mps 727 mmHg 94%
    06:00 +6°C° 0 mm 4 mps 727 mmHg 94%
    07:00 +7°C° 0 mm 5 mps 727 mmHg 90%
    08:00 +8°C° 0 mm 6 mps 727 mmHg 85%
    09:00 +9°C° 0 mm 7 mps 728 mmHg 81%
    10:00 +9°C° 0.2 mm 8 mps 728 mmHg 77%
    11:00 +10°C° 0.2 mm 9 mps 728 mmHg 73%
    12:00 +9°C° 0.2 mm 10 mps 728 mmHg 69%
    13:00 +9°C° 0.4 mm 10 mps 728 mmHg 71%
    14:00 +8°C° 0.4 mm 11 mps 728 mmHg 72%
    15:00 +8°C° 0.4 mm 12 mps 728 mmHg 74%
    16:00 +7°C° 1.6 mm 11 mps 729 mmHg 79%
    17:00 +7°C° 1.6 mm 10 mps 729 mmHg 85%
    18:00 +6°C° 1.6 mm 9 mps 730 mmHg 90%
    19:00 +6°C° 0.3 mm 9 mps 730 mmHg 90%
    20:00 +6°C° 0.3 mm 8 mps 731 mmHg 90%
    21:00 +6°C° 0.3 mm 8 mps 732 mmHg 89%
    22:00 +6°C° 0 mm 7 mps 732 mmHg 90%
    23:00 +6°C° 0 mm 7 mps 733 mmHg 90%

    26 April, Friday

    Time Temperature Precipitation Wind Pressure Humidity
    00:00 +5°C° 0 mm 7 mps 733 mmHg 91%
    01:00 +5°C° 0 mm 6 mps 733 mmHg 91%
    02:00 +5°C° 0 mm 6 mps 734 mmHg 92%
    03:00 +7°C° 0 mm 6 mps 734 mmHg 92%
    04:00 +7°C° 0 mm 5 mps 734 mmHg 93%
    05:00 +7°C° 0 mm 5 mps 734 mmHg 93%
    06:00 +7°C° 0 mm 5 mps 735 mmHg 94%
    07:00 +8°C° 0.1 mm 4 mps 735 mmHg 92%
    08:00 +10°C° 0.1 mm 4 mps 736 mmHg 90%
    09:00 +10°C° 0.1 mm 4 mps 736 mmHg 88%
    10:00 +10°C° 0.4 mm 5 mps 737 mmHg 85%
    11:00 +11°C° 0.4 mm 6 mps 737 mmHg 82%
    12:00 +11°C° 0.4 mm 7 mps 738 mmHg 79%
    13:00 +10°C° 0.1 mm 8 mps 739 mmHg 77%
    14:00 +9°C° 0.1 mm 8 mps 740 mmHg 75%
    15:00 +9°C° 0.1 mm 8 mps 740 mmHg 73%
    16:00 +7°C° 0 mm 8 mps 741 mmHg 72%
    17:00 +8°C° 0 mm 7 mps 742 mmHg 71%
    18:00 +7°C° 0 mm 6 mps 743 mmHg 69%
    19:00 +7°C° 0 mm 6 mps 743 mmHg 70%
    20:00 +6°C° 0 mm 5 mps 744 mmHg 71%
    21:00 +5°C° 0 mm 4 mps 744 mmHg 72%
    22:00 +4°C° 0.3 mm 6 mps 743 mmHg 77%
    23:00 +4°C° 0.3 mm 7 mps 742 mmHg 83%

    27 April, Saturday

    Time Temperature Precipitation Wind Pressure Humidity
    00:00 +3°C° 0.3 mm 9 mps 741 mmHg 88%
    01:00 +3°C° 0.9 mm 10 mps 740 mmHg 87%
    02:00 +5°C° 0.9 mm 10 mps 739 mmHg 86%
    03:00 +4°C° 0.9 mm 11 mps 738 mmHg 85%
    04:00 +3°C° 0 mm 11 mps 739 mmHg 81%
    05:00 +3°C° 0 mm 12 mps 739 mmHg 77%
    06:00 +2°C° 0 mm 12 mps 740 mmHg 73%
    07:00 +2°C° 0 mm 11 mps 742 mmHg 73%
    08:00 +3°C° 0 mm 11 mps 743 mmHg 73%
    09:00 +3°C° 0 mm 10 mps 744 mmHg 73%
    10:00 +5°C° 0.1 mm 9 mps 746 mmHg 71%
    11:00 +6°C° 0.1 mm 8 mps 747 mmHg 69%
    12:00 +8°C° 0.1 mm 7 mps 748 mmHg 67%
    13:00 +9°C° 0.1 mm 7 mps 749 mmHg 66%
    14:00 +9°C° 0.1 mm 7 mps 749 mmHg 65%
    15:00 +10°C° 0.1 mm 7 mps 750 mmHg 65%
    16:00 +9°C° 0 mm 6 mps 750 mmHg 67%
    17:00 +8°C° 0 mm 5 mps 750 mmHg 69%
    18:00 +8°C° 0 mm 4 mps 751 mmHg 71%
    19:00 +7°C° 0 mm 4 mps 751 mmHg 72%
    20:00 +7°C° 0 mm 4 mps 752 mmHg 74%
    21:00 +6°C° 0 mm 4 mps 752 mmHg 75%
    22:00 +6°C° 0.2 mm 4 mps 752 mmHg 80%
    23:00 +6°C° 0.2 mm 4 mps 752 mmHg 85%
    Show more